Regional Weather Roundup
Issued by NWS Charleston, SC

Current Version | Previous Version | Text Only | Print | Product List | Glossary Off
Versions: 1 2 3 4 5 6 7 8 9 10 11 12 13 14 15 16 17 18 19 20 21 22 23 24 25 26 27 28 29 30 31 32 33 34 35 36 37 38 39 40 41 42 43 44 45 46 47 48 49 50

000
ASUS42 KCHS 220412
RWRCHS

Regional Weather Roundup
National Weather Service Charleston SC
1100 PM EST SUN JAN 21 2018

NOTE: "fair" indicates few or no clouds below 12,000 feet with no
significant weather and/or obstructions to visibility.

Not all stations are quality controlled. Use data with caution,
especially dewpoint observations.

SCZ027-030-031-034>040-042>050-220500-
...Southeast South Carolina...

CITY           SKY/WX    TMP DP  RH WIND       PRES   REMARKS
N Charleston   FAIR      45  41  86 CALM      30.24R
Waterfront Prk NOT AVBL
Mount Pleasant FAIR      41  39  93 CALM      30.24R
Johns Island   FAIR      43  41  93 CALM      30.23S
Pinopolis        N/A     52  43  71 CALM      30.15R
Moncks Corner  FAIR      41  37  87 CALM      30.24R
Summerville    FAIR      43  39  87 CALM      30.24S
Beaufort MCAS  FAIR      43  40  89 CALM      30.24R
Beaufort Arpt  FAIR      45  41  87 CALM      30.23S
Hilton Head Is FAIR      46  43  87 CALM      30.24S
Walterboro     FAIR      43  39  87 CALM      30.24S
Allendale      FAIR      48  43  81 CALM      30.22R

...Southern Midlands and Pee Dee...

CITY           SKY/WX    TMP DP  RH WIND       PRES   REMARKS
Georgetown     FAIR      36  36 100 CALM      30.24S
Kingstree      FAIR      41  36  81 CALM      30.24R
Orangeburg     FAIR      45  39  79 CALM      30.22S
Barnwell         N/A     46  43  87 CALM      30.22R
Aiken          FAIR      43  39  87 CALM      30.24R
Manning        FAIR      43   1  17 MISG      30.23S
Columbia       FAIR      43  40  89 CALM      30.22R
Sumter         FAIR      45  38  76 CALM      30.20R
Florence       FAIR      47  40  76 CALM      30.23R
Myrtle Beach   FAIR      43  39  86 CALM      30.25R
N Myrtle Beach FAIR      41  39  93 CALM      30.23S

$$

GAZ063-065-086>088-099>101-113>116-118-119-134>141-150-220500-
...Southeast Georgia...

CITY           SKY/WX    TMP DP  RH WIND       PRES   REMARKS
Savannah Arpt  FAIR      47  39  74 CALM      30.24R
Hunter AAF     FAIR      45  40  81 CALM      30.20S
Fort Stewart   FAIR      45  39  81 CALM      30.21S
Statesboro     FAIR      45  39  82 CALM      30.22S
Sylvania       FAIR      51  43  72 CALM      30.23S
Claxton        FAIR      44  42  93 CALM      30.22F

...CSRA, Central and far Southeast Georgia...

CITY           SKY/WX    TMP DP  RH WIND       PRES   REMARKS
Thomson        FAIR      43  41  91 CALM      30.25S
Augusta-Bush   FAIR      42  39  89 CALM      30.20S
Augusta-Daniel FAIR      56  43  61 SE5       30.20S
Swainsboro     FAIR      50  43  76 CALM      30.21S HAZE
Vidalia        FAIR      52  43  71 S3        30.21S
Eastman        FAIR      46  37  73 CALM      30.22S
Hazlehurst     FAIR      54  35  48 SE5       30.20S
Alma           FAIR      49  39  68 CALM      30.21R
Waycross       FAIR      50  36  58 CALM      30.21S
Jesup          NOT AVBL
Baxley         FAIR      46  36  66 CALM      30.21S
Brunswick      FAIR      45  37  76 CALM      30.23S
Saint Simons   MOCLDY    54  49  83 E6        30.22S

$$

SCZ027-028-034-036>038-045-046-048>050-GAZ119-141-220500-
...Lake and Supplemental Coastal Observations...

STATION/POSITION TIME  TEMP    WIND        PRES    WAVE   SWELL
                       AIR SEA DIR/SP/G            HT/PER HT/PER/DIR
                 (UTC) (F)     (DEG/KT/KT) (MB)    (FT/S) (FT/S/D)
Winyah Bay       0245   44        CALM     1024.0
Lake Murray      0320   49      CALM  /  1 1022.4R
ACE Basin NERRS  0245   43        CALM     1023.0
Fort Pulaski     0336   47 46     CALM     1023.8R
Sapelo Island    0300   52        CALM     1023.0

$$

ANZ835-935-AMZ111-154-330-350-352-354-370-450-454-472-220500-
...C-MAN and Buoy Observations...

STATION/POSITION TIME  TEMP    WIND        PRES    WAVE   SWELL
                       AIR SEA DIR/SP/G            HT/PER HT/PER/DIR
                 (UTC) (F)     (DEG/KT/KT) (MB)    (FT/S) (FT/S/D)
Buoy 41004       0350   64 70  180/  6/  8 1023.2R   1/11   2/ 90/11
Buoy 41008       0350   56 51  130/  4/  4 1023.3R   1/11   2/ 90/11
Folly Beach CMAN 0300   49      20/  2/  3 1024.0F
Capers Nearshore 0308   46 50   20/  2/  4 1023.2F
Fripp Nearshore  0308   47 48  170/  2/  2 1022.8R


STATION/POSITION TIME  TEMP    WIND        PRES    WAVE   SWELL
                       AIR SEA DIR/SP/G            HT/PER HT/PER/DIR
                 (UTC) (F)     (DEG/KT/KT) (MB)    (FT/S) (FT/S/D)
5E St. Marys GA  0330      49                N/A     1/11   2/100/11
Frying Pan Buoy  0350   61 66  280/  4/  6 1023.7F   1/11   2/110/11
Buoy 41025       0400   60 72  360/  4/  8 1024.0
Cape Lookout NC  0300           50/  2/  2 1024.3R
Buoy 41002       0350   65 70  100/  2/  4 1024.6F   3/10   2/100/10
Buoy 41010       NOT AVBL
St Augustine FL  0400   56 53  350/  6/  6 1022.8F


$$




USA.gov is the U.S. government's official web portal to all federal, state and local government web resources and services.